Flag for U.S.A. Weather past 2 weeks in Lakeland, Florida, U.S.A.

Now
81 °F

Clear.


Feels Like: 85 °F
Forecast: 74 / 92 °F
Wind: 7 mph from Northwest

Location: Lakeland Regional

Current Time: Jun 30, 2015 at 10:45:27 PM

Latest Report: Jun 30, 2015 at 10:15 PM


Visibility: 10 mi

Pressure: 30.15 "Hg

Humidity: 79%

Dew point: 73 °F

Location of LakelandLocation

Historic Weather in Lakeland — Graph

°F

Lakeland temperature yesterday

Maximum temperature yesterday: 88 °F (at 10:50 AM)
Minimum temperature yesterday: 73 °F (at 3:15 AM)
Average temperature yesterday: 78 °F

Past Weeks' High & Low Weather Summary

 TemperatureHumidityPressure
High93 °F (Jun 16, 3:50 PM)100% (Jun 18, 11:50 AM)30.18 "Hg (Jun 18, 11:50 AM)
Low72 °F (Jun 21, 2:35 AM)47% (Jun 16, 3:50 PM)30.00 "Hg (Jun 27, 4:50 PM)
Average79 °F82%30.10 "Hg
* Reported Jun 15 9:50 PM — Jun 30 9:45 PM, Lakeland, Weather by CustomWeather, © 2015

Note: Actual official high and low records may vary slightly from our data, if they occured in-between our weather recording intervals... More about our weather records

Advertising

Lakeland weather history for previous 24 hours

 ConditionsComfort  
Time TempWeatherWind HumidityBarometerVisibility
9:45 PM
Tue, Jun 30
82 °FClear.6 mph74%30.13 "Hg10 mi
8:46 PM84 °FSunny.6 mph66%30.10 "Hg10 mi
7:45 PM88 °FPassing clouds.7 mph55%30.10 "Hg10 mi
6:52 PM90 °FScattered clouds.9 mph52%30.09 "Hg10 mi
5:50 PM90 °FPartly sunny.8 mph55%30.09 "Hg10 mi
4:45 PM91 °FScattered clouds.15 mph52%30.08 "Hg10 mi
3:45 PM91 °FScattered clouds.9 mph56%30.08 "Hg10 mi
2:45 PM90 °FBroken clouds.6 mph55%30.08 "Hg10 mi
1:50 PM90 °FScattered clouds.7 mph55%30.10 "Hg10 mi
11:50 AM88 °FScattered clouds.8 mph62%30.14 "Hg10 mi
10:50 AM84 °FPartly sunny.3 mph74%30.16 "Hg10 mi
9:50 AM82 °FSunny.5 mph79%30.15 "Hg10 mi
8:50 AM79 °FSunny.5 mph89%30.14 "Hg10 mi
7:50 AM75 °FPassing clouds.5 mph94%30.13 "Hg10 mi
6:50 AM73 °FPassing clouds.No wind94%30.13 "Hg10 mi
5:50 AM73 °FClear.No wind94%N/A10 mi
5:35 AM72 °FClear.No wind100%30.11 "Hg10 mi
5:15 AM72 °FClear.No wind100%30.11 "Hg10 mi
4:55 AM72 °FClear.3 mph100%30.11 "Hg10 mi
4:35 AM72 °FThunderstorms. Clear.3 mph100%30.10 "Hg10 mi
4:15 AM72 °FClear.No wind100%30.09 "Hg7 mi
3:55 AM72 °FClear.3 mph100%30.09 "Hg10 mi
3:15 AM73 °FClear.5 mph94%30.09 "Hg10 mi
2:55 AM73 °FPassing clouds.5 mph94%30.08 "Hg10 mi
2:35 AM73 °FPassing clouds.5 mph94%30.08 "Hg10 mi
2:15 AM73 °FPassing clouds.5 mph94%30.09 "Hg10 mi
1:55 AM73 °FPartly cloudy.6 mph94%30.09 "Hg10 mi
1:35 AM73 °FClear.5 mph100%30.10 "Hg10 mi
1:15 AM73 °FClear.5 mph100%30.11 "Hg10 mi
12:55 AM75 °FClear.5 mph94%30.11 "Hg10 mi
12:15 AM75 °FClear.6 mph94%30.10 "Hg10 mi
11:55 PM
Mon, Jun 29
75 °FClear.5 mph94%30.10 "Hg10 mi
11:35 PM77 °FClear.6 mph89%30.10 "Hg10 mi
11:15 PM77 °FClear.7 mph89%30.10 "Hg10 mi
10:55 PM77 °FClear.3 mph83%30.10 "Hg10 mi
10:35 PM77 °FClear.3 mph89%30.10 "Hg10 mi
10:15 PM77 °FClear.3 mph89%30.09 "Hg10 mi
Weather by CustomWeather, © 2015

See weather overviewHow to use our weather pages